Regional Weather Roundup
Issued by NWS

Home | Current Version | Previous Version | Graphics & Text | Print | Product List | Glossary On
Versions: 1 2 3 4 5 6 7 8 9 10 11 12 13 14 15 16 17 18 19 20 21 22 23 24 25 26 27 28 29 30 31 32 33 34 35 36 37 38 39 40 41 42 43 44 45 46 47 48 49 50
000
ASUS45 KPSR 180010
RWRAZ

ARIZONA HOURLY REGIONAL WEATHER ROUNDUP
NATIONAL WEATHER SERVICE PHOENIX AZ
500 PM MST TUE OCT 17 2017

NOTE: FAIR INDICATES FEW OR NO CLOUDS BELOW 12,000 FEET WITH NO
SIGNIFICANT WEATHER AND/OR OBSTRUCTIONS TO VISIBILITY.

AZZ001>003-036-180100-
NORTHWEST ARIZONA

CITY           SKY/WX    TMP DP  RH WIND       PRES   REMARKS
BULLHEAD CITY  SUNNY     91   9   4 NW7       29.89F
KINGMAN        MOSUNNY   85  29  13 SW15      30.07F
6HR MIN TEMP:  78; 6HR MAX TEMP:  89;

$$

AZZ004>008-015-016-018-180100-
NORTH CENTRAL ARIZONA

CITY           SKY/WX    TMP DP  RH WIND       PRES   REMARKS
GRAND CANYON   CLEAR     72  21  14 W8        30.28F
6HR MIN TEMP:  72; 6HR MAX TEMP:  76;

WILLIAMS       CLEAR     73  19  13 SW5       30.28F
PRESCOTT       CLEAR     81  29  15 NE7       30.16F
6HR MIN TEMP:  74; 6HR MAX TEMP:  83;

FLAGSTAFF      CLEAR     69  20  15 SW10      30.30S
6HR MIN TEMP:  69; 6HR MAX TEMP:  73;

PAYSON           N/A     79  34  19 S6        30.20S
PAGE           CLEAR     72  14  11 CALM      30.13
6HR MIN TEMP:  61; 6HR MAX TEMP:  74;

$$

AZZ009>014-017-180100-
NORTHEAST ARIZONA

CITY           SKY/WX    TMP DP  RH WIND       PRES   REMARKS
WINSLOW        CLEAR     80  25  13 N5        30.16F
6HR MIN TEMP:  67; 6HR MAX TEMP:  82;

SAINT JOHNS    CLEAR     76  24  14 N3        30.19F
6HR MIN TEMP:  71; 6HR MAX TEMP:  80;

WINDOW ROCK    CLEAR     74  14  10 W8        30.27S
6HR MIN TEMP:  71; 6HR MAX TEMP:  77;

SHOW LOW       CLEAR     73  28  19 SW13      30.27S
$$

AZZ540-542>544-546-548-180100-
GREATER PHOENIX AREA

CITY           SKY/WX    TMP DP  RH WIND       PRES   REMARKS
PHOENIX        MOCLDY    95  46  18 W3        29.88F
6HR MIN TEMP:  91; 6HR MAX TEMP:  97;

BUCKEYE        MOSUNNY   91  50  24 S3        29.89F
GLENDALE       MOCLDY    97  45  16 CALM      29.90F
LUKE AFB       PTCLDY    95  46  18 SW5       29.87F
6HR MIN TEMP:  91; 6HR MAX TEMP:  96;

DEER VALLEY    PTCLDY    93  44  18 CALM      29.91F
6HR MIN TEMP:  90; 6HR MAX TEMP:  95;

SCOTTSDALE     MOCLDY    94  44  17 S6        29.92F
6HR MIN TEMP:  90; 6HR MAX TEMP:  97;

MESA-FALCON    MOCLDY    93  50  22 W5        29.91F
MESA-GATEWAY   MOCLDY    93  48  21 W8        29.91F
CHANDLER       MOCLDY    95  45  17 SW6       29.90F
$$

AZZ539-553-180100-
SOUTHWEST MARICOPA COUNTY AND PINAL COUNTY

CITY           SKY/WX    TMP DP  RH WIND       PRES   REMARKS
CASA GRANDE    NOT AVBL
GILA BEND      PTSUNNY   95  45  17 NW7       29.87F
$$

AZZ503-504-507>509-180100-
SOUTHEAST ARIZONA

CITY           SKY/WX    TMP DP  RH WIND       PRES   REMARKS
TUCSON         CLOUDY    93  44  18 N9        30.00S
6HR MIN TEMP:  88; 6HR MAX TEMP:  95;

DAVIS-MONTHAN  MOCLDY    91  41  17 VRB2      29.98S
RYAN FIELD     CLEAR     91  45  19 NW7       29.99S
NOGALES        CLOUDY    86  43  22 W6        30.08S
6HR MIN TEMP:  85; 6HR MAX TEMP:  91;

SIERRA VISTA   CLOUDY    82  45  26 CALM      30.15F
6HR MIN TEMP:  79; 6HR MAX TEMP:  84;

DOUGLAS        MOCLDY    84  43  23 CALM      30.10F
6HR MIN TEMP:  78; 6HR MAX TEMP:  87;

SAFFORD        PTCLDY    87  42  20 CALM      30.03F
6HR MIN TEMP:  81; 6HR MAX TEMP:  88;

$$

AZZ532-180100-
SOUTHWEST ARIZONA

CITY           SKY/WX    TMP DP  RH WIND       PRES   REMARKS
YUMA           PTSUNNY   96  20   6 W3        29.86F
6HR MIN TEMP:  91; 6HR MAX TEMP:  99;

$$

CAZ041-043-047-048-061-525>527-560>570-180100-
SOUTHERN CALIFORNIA

CITY           SKY/WX    TMP DP  RH WIND       PRES   REMARKS
DOWNTOWN L.A.  SUNNY     84  49  29 CALM      29.89F
6HR MIN TEMP:  83; 6HR MAX TEMP:  94;

L.A. AIRPORT   MOSUNNY   78  55  44 W9        29.90F
6HR MIN TEMP:  76; 6HR MAX TEMP:  89;

SAN DIEGO      MOSUNNY   78  65  63 NW7       29.94F
6HR MIN TEMP:  76; 6HR MAX TEMP:  85;

BURBANK        SUNNY     91  34  13 SE6       29.92S
6HR MIN TEMP:  88; 6HR MAX TEMP:  95;

ONTARIO        PTSUNNY   92  36  14 W13       29.92F
6HR MIN TEMP:  85; 6HR MAX TEMP:  97;

RIVERSIDE      MOSUNNY   92  31  11 W12       29.91F
6HR MIN TEMP:  84; 6HR MAX TEMP:  97;

PALM SPRINGS   SUNNY     99  16   5 VRB6      29.88F
6HR MIN TEMP:  92; 6HR MAX TEMP: 101;

EL CENTRO NAS  PTSUNNY   96  10   4 CALM      29.86F
6HR MIN TEMP:  87; 6HR MAX TEMP:  98;

IMPERIAL       MOSUNNY   96  27   8 SE3       29.84F
6HR MIN TEMP:  86; 6HR MAX TEMP:  98;

BLYTHE         MOSUNNY   95  21   7 SE3       29.88F
6HR MIN TEMP:  81; 6HR MAX TEMP:  96;

NEEDLES        SUNNY     95   9   4 SE3       29.91F
6HR MIN TEMP:  83; 6HR MAX TEMP:  96;

$$

NVZ020-UTZ003-180100-
SOUTHERN NEVADA-UTAH

CITY           SKY/WX    TMP DP  RH WIND       PRES   REMARKS
LAS VEGAS      MOSUNNY   86  11   6 CALM      29.99F
6HR MIN TEMP:  73; 6HR MAX TEMP:  86;

SALT LAKE CITY MOCLDY    60  35  39 W9        30.12S
6HR MIN TEMP:  60; 6HR MAX TEMP:  70;

$$

NMZ009-TXZ055-180100-
NEW MEXICO-WEST TEXAS

CITY           SKY/WX    TMP DP  RH WIND       PRES   REMARKS
ALBUQUERQUE    PTCLDY    74  20  13 CALM      30.19F
6HR MIN TEMP:  64; 6HR MAX TEMP:  76;

EL PASO        MOCLDY    81  44  27 S3        30.12F
6HR MIN TEMP:  74; 6HR MAX TEMP:  85;

$$


........................KEY........................
SKY/WX - SKY CONDITION/WEATHER
TMP    - TEMPERATURE IN FAHRENHEIT
DP     - DEW POINT IN FAHRENHEIT
RH     - RELATIVE HUMIDITY IN PERCENT
WIND   - DIRECTION AND SPEED IN MILES PER HOUR (MPH)
VRB    - VARIABLE WIND DIRECTION
PRES   - MEAN SEA LEVEL PRESSURE IN INCHES OF MERCURY
         F - FALLING PRESSURE   R - RISING PRESSURE
         S - STEADY PRESSURE
VSB    - VISIBILITY IN MILES
HX     - HEAT INDEX IN FAHRENHEIT
WCI    - WIND CHILL INDEX IN FAHRENHEIT
TC     - TEMPERATURE IN CELSIUS WHICH IS ALSO KNOWN AS
         TEMPERATURE IN CENTIGRADE
AFB    - AIR FORCE BASE
         LUKE AFB IS LUKE AIR FORCE BASE
         DAVIS-MONTHAN IS DAVIS-MONTHAN AIR FORCE BASE
NAS    - NAVAL AIR STATION
         EL CENTRO NAS IS EL CENTRO NAVAL AIR STATION
N/A    - NOT AVAILABLE




USA.gov is the U.S. government's official web portal to all federal, state and local government web resources and services.